Weather reports worldwide

Advertisment
Milano/Linate, Italy (16080): temperature & dewpoint: 13.03.2019 09:00:00 - 19.03.2019 09:00:00 (CET)Milano/Linate, Italy (16080): wind speed: 13.03.2019 09:00:00 - 19.03.2019 09:00:00 (CET)Milano/Linate, Italy (16080): wind direction: 13.03.2019 09:00:00 - 19.03.2019 09:00:00 (CET)Milano/Linate, Italy (16080): reduced air pressure: 13.03.2019 09:00:00 - 19.03.2019 09:00:00 (CET)Milano/Linate, Italy (16080): visibility: 13.03.2019 09:00:00 - 19.03.2019 09:00:00 (CET)Milano/Linate, Italy (16080): precipitation: 13.03.2019 09:00:00 - 19.03.2019 09:00:00 (CET)
Date & Time tt [°C] td [°C] ff [km/h] ff [kn] dd ppp [hPa] vv [km] rr [mm]
19.03.2019 09:00:00 9,0 4,0 5 3 N - 10 -
19.03.2019 08:00:00 6,0 4,0 4 2 NNE - 10 -
19.03.2019 07:00:00 3,3 3,0 2 1 N 1021,7 10 -
19.03.2019 06:00:00 3,0 2,0 2 1 NW - 10 -
19.03.2019 05:00:00 4,0 3,0 5 3 N - 10 -
19.03.2019 04:00:00 4,6 3,2 5 3 NNE 1021,0 10 0,0
19.03.2019 03:00:00 6,0 3,0 4 2 ENE - 10 -
19.03.2019 02:00:00 7,0 4,0 8 4 E - 10 -
19.03.2019 01:00:00 7,8 4,1 9 5 ESE 1021,2 10 -
19.03.2019 00:00:00 8,0 5,0 8 4 SE - 10 -
18.03.2019 23:00:00 9,0 4,0 15 8 ENE - 10 -
18.03.2019 22:00:00 8,4 3,9 16 9 SE 1020,2 10 0,0
18.03.2019 21:00:00 9,0 4,0 21 11 SE - 10 -
18.03.2019 20:00:00 11,0 0,0 11 6 SE - 10 -
18.03.2019 19:00:00 13,0 -4,9 22 12 NNE 1016,4 10 -
18.03.2019 18:00:00 14,0 -9,0 26 14 N - 10 -
18.03.2019 17:00:00 16,0 -9,0 22 12 N - 10 -
18.03.2019 16:00:00 16,1 -7,7 24 13 N 1013,8 10 0,0
18.03.2019 15:00:00 16,0 -8,0 26 14 N - 10 -
18.03.2019 14:00:00 16,0 -7,0 26 14 N - 10 -
18.03.2019 13:00:00 16,0 -5,3 28 15 N 1014,1 10 -
18.03.2019 12:00:00 15,0 -4,0 21 11 NW - 10 -
18.03.2019 11:00:00 15,0 -3,0 21 11 N - 10 -
18.03.2019 10:00:00 12,4 1,9 13 7 ESE 1013,4 10 0,0
18.03.2019 09:00:00 9,0 4,0 11 6 NE - 10 -
18.03.2019 08:00:00 6,0 0,0 9 5 N - 10 -
18.03.2019 07:00:00 6,5 4,3 8 4 SW 1011,1 10 -
18.03.2019 06:00:00 8,0 5,0 13 7 W - 10 -
18.03.2019 05:00:00 8,0 5,0 11 6 W - 10 -
18.03.2019 04:00:00 8,0 5,0 8 4 NW - 10 -
18.03.2019 03:00:00 8,0 7,0 24 13 N - 5 -
18.03.2019 02:00:00 9,0 7,0 16 9 NW - 5 -
18.03.2019 01:00:00 11,2 9,2 4 2 - 1009,4 10 -
18.03.2019 00:00:00 12,0 8,0 4 2 - - 10 -
17.03.2019 23:00:00 12,0 8,0 2 1 - - 10 -
17.03.2019 22:00:00 12,3 7,6 4 2 NW 1010,8 10 0,0
17.03.2019 21:00:00 13,0 7,0 4 2 - - 10 -
17.03.2019 20:00:00 13,0 8,0 4 2 - - 10 -
17.03.2019 19:00:00 13,2 7,7 4 2 - 1011,5 10 -
17.03.2019 18:00:00 13,0 8,0 5 3 S - 10 -
17.03.2019 17:00:00 14,0 9,0 5 3 S - 10 -
17.03.2019 16:00:00 14,2 7,7 5 3 ENE 1012,7 10 0,0
17.03.2019 15:00:00 14,0 8,0 5 3 NNE - 10 -
17.03.2019 14:00:00 14,0 9,0 5 3 N - 9 -
17.03.2019 13:00:00 13,7 8,3 2 1 - 1014,9 6 -
17.03.2019 12:00:00 13,0 8,0 2 1 - - 5 -
17.03.2019 11:00:00 12,0 7,0 4 2 - - 5 -
17.03.2019 10:00:00 11,9 7,3 5 3 ESE 1016,2 5 0,0
17.03.2019 09:00:00 11,0 6,0 5 3 ENE - 10 -
17.03.2019 08:00:00 8,0 5,0 2 1 SE - 10 -
17.03.2019 07:00:00 5,8 5,1 2 1 N 1015,8 - -
17.03.2019 06:00:00 - - - - - - - -
17.03.2019 05:00:00 - - - - - - - -
17.03.2019 04:00:00 7,0 5,6 2 1 N 1015,6 - 0,0
17.03.2019 03:00:00 - - - - - - - -
17.03.2019 02:00:00 - - - - - - - -
17.03.2019 01:00:00 10,8 5,5 4 2 N 1015,7 - -
17.03.2019 00:00:00 - - - - - - - -
16.03.2019 23:00:00 12,0 6,0 4 2 - - 10 -
16.03.2019 22:00:00 13,9 5,6 16 9 W 1014,8 10 0,0
16.03.2019 21:00:00 15,0 6,0 11 6 W - 10 -
16.03.2019 20:00:00 16,0 7,0 11 6 W - 10 -
16.03.2019 19:00:00 18,3 7,1 11 6 WSW 1012,8 10 -
16.03.2019 18:00:00 22,0 8,0 13 7 WSW - 10 -
16.03.2019 17:00:00 23,0 7,0 13 7 WSW - 10 -
16.03.2019 16:00:00 23,4 6,1 16 9 WSW 1012,2 10 0,0
16.03.2019 15:00:00 23,0 5,0 15 8 W - 10 -
16.03.2019 14:00:00 22,0 6,0 16 9 WSW - 10 -
16.03.2019 13:00:00 21,2 6,0 16 9 W 1013,9 10 -
16.03.2019 12:00:00 20,0 7,0 18 10 W - 10 -
16.03.2019 11:00:00 18,0 8,0 16 9 W - 10 -
16.03.2019 10:00:00 15,3 7,4 16 9 W 1014,7 10 0,0
16.03.2019 09:00:00 14,0 7,0 11 6 W - 10 -
16.03.2019 08:00:00 12,0 6,0 2 1 - - 10 -
16.03.2019 07:00:00 10,5 5,5 11 6 W 1012,9 10 -
16.03.2019 06:00:00 9,0 4,0 8 4 WNW - 10 -
16.03.2019 05:00:00 10,0 5,0 8 4 W - 10 -
16.03.2019 04:00:00 - - - - - - - -
16.03.2019 03:00:00 - - - - - - - -
16.03.2019 02:00:00 - - - - - - - -
16.03.2019 01:00:00 11,5 5,8 11 6 W 1012,7 - -
16.03.2019 00:00:00 13,0 6,0 13 7 W - 10 -
15.03.2019 23:00:00 15,0 5,0 11 6 W - 10 -
15.03.2019 22:00:00 14,8 4,3 11 6 W 1012,6 10 0,0
15.03.2019 21:00:00 16,0 4,0 8 4 WNW - 10 -
15.03.2019 20:00:00 17,0 3,0 15 8 WNW - 10 -
15.03.2019 19:00:00 17,2 3,2 15 8 W 1010,8 10 -
15.03.2019 18:00:00 20,0 2,0 11 6 WSW - 10 -
15.03.2019 17:00:00 22,0 3,0 16 9 W - 10 -
15.03.2019 16:00:00 22,1 2,5 21 11 W 1009,4 10 0,0
15.03.2019 15:00:00 21,0 3,0 18 10 W - 10 -
15.03.2019 14:00:00 21,0 3,0 13 7 W - 10 -
15.03.2019 13:00:00 19,9 3,3 15 8 W 1010,4 10 -
15.03.2019 12:00:00 18,0 4,0 15 8 WSW - 10 -
15.03.2019 11:00:00 17,0 5,0 13 7 WSW - 10 -
15.03.2019 10:00:00 13,9 4,0 13 7 W 1011,1 10 0,0
15.03.2019 09:00:00 11,0 4,0 15 8 W - 10 -
15.03.2019 08:00:00 8,0 3,0 13 7 W - 10 -
15.03.2019 07:00:00 6,4 2,5 5 3 WSW 1010,2 10 -
15.03.2019 06:00:00 - - - - - - - -
15.03.2019 05:00:00 5,0 1,0 8 4 W - 10 -
15.03.2019 04:00:00 5,1 0,6 4 2 - 1009,2 10 0,0
15.03.2019 03:00:00 6,0 1,0 5 3 W - 10 -
15.03.2019 02:00:00 8,0 1,0 5 3 WSW - 10 -
15.03.2019 01:00:00 8,4 0,8 8 4 WSW 1008,9 10 -
15.03.2019 00:00:00 10,0 1,0 8 4 WNW - 10 -
14.03.2019 23:00:00 10,0 0,0 9 5 WSW - 10 -
14.03.2019 22:00:00 10,2 -0,2 9 5 W 1009,2 10 0,0
14.03.2019 21:00:00 13,0 -1,0 9 5 SW - 10 -
14.03.2019 20:00:00 14,0 -3,0 9 5 WSW - 10 -
14.03.2019 19:00:00 14,1 -4,8 5 3 NNW 1009,1 10 -
14.03.2019 18:00:00 16,0 -6,0 9 5 NW - 10 -
14.03.2019 17:00:00 16,0 -6,0 11 6 NW - 10 -
14.03.2019 16:00:00 16,2 -6,8 9 5 W 1009,7 10 0,0
14.03.2019 15:00:00 - - - - - - - -
14.03.2019 14:00:00 15,0 -5,0 11 6 W - 10 -
14.03.2019 13:00:00 15,0 -2,1 15 8 WSW 1013,5 10 -
14.03.2019 12:00:00 14,0 -1,0 15 8 WSW - 10 -
14.03.2019 11:00:00 12,0 1,0 11 6 W - 10 -
14.03.2019 10:00:00 9,1 2,2 13 7 WSW 1015,5 10 0,0
14.03.2019 09:00:00 6,0 2,0 9 5 WSW - 10 -
14.03.2019 08:00:00 4,0 2,0 5 3 SSW - 10 -
14.03.2019 07:00:00 0,6 -0,4 5 3 S 1015,6 10 -
14.03.2019 06:00:00 2,0 1,0 2 1 - - 10 -
14.03.2019 05:00:00 2,0 1,0 5 3 W - 10 -
14.03.2019 04:00:00 1,4 0,4 9 5 SSE 1015,3 10 0,0
14.03.2019 03:00:00 3,0 3,0 2 1 - - 10 -
14.03.2019 02:00:00 4,0 2,0 4 2 - - 10 -
14.03.2019 01:00:00 2,8 0,4 4 2 - 1014,9 10 -
14.03.2019 00:00:00 4,0 2,0 4 2 NNW - 10 -
13.03.2019 23:00:00 5,0 2,0 5 3 ENE - 10 -
13.03.2019 22:00:00 4,7 1,2 5 3 NE 1014,4 10 0,0
13.03.2019 21:00:00 8,0 3,0 9 5 ESE - 10 -
13.03.2019 20:00:00 9,0 3,0 11 6 ESE - 10 -
13.03.2019 19:00:00 10,2 3,0 18 10 E 1012,1 10 -
13.03.2019 18:00:00 16,0 -9,0 21 11 NNW - 10 -
13.03.2019 17:00:00 16,0 -2,0 8 4 SW - 10 -
13.03.2019 16:00:00 15,2 -1,8 5 3 - 1009,6 10 0,0
13.03.2019 15:00:00 15,0 -1,0 11 6 W - 10 -
13.03.2019 14:00:00 14,0 2,0 11 6 WSW - 10 -
13.03.2019 13:00:00 13,1 2,3 9 5 - 1011,9 10 -
13.03.2019 12:00:00 13,0 4,0 13 7 SW - 10 -
13.03.2019 11:00:00 12,0 3,0 8 4 SSW - 10 -
13.03.2019 10:00:00 10,7 0,4 4 2 - 1013,7 10 0,0
13.03.2019 09:00:00 7,0 0,0 4 2 - - 10 -

tt = temperature
td = dewpoint
ff = wind speed
dd = wind direction
ppp = reduced air pressure
vv = visibility
rr = precipitation

Next stations